ANA540 RJFK-RJOO

Flight info

Callsign ANA540
Flight time N/A
Altitude 35000
Route MIDAI M750 MADOG Y753 IZUMI
Aircraft A20N/M-SDE2E3GHIJ1J3J4J5LM1ORWXYZ/LB1D1

Departure

Time 2026-04-30 12:25
Airport Kagoshima Airport (RJFK)

Arrival

Time N/A
Airport Osaka Itami International Airport (RJOO)
Time Latitude Longitude Altitude Speed Heading
2026-04-30 11:55 31.80169 130.71658 850 ft 0 kts 240°
2026-04-30 12:15 31.80171 130.71661 847 ft 3 kts 240°
2026-04-30 12:15 31.80184 130.71688 849 ft 4 kts 238°
2026-04-30 12:15 31.80199 130.71715 849 ft 4 kts 236°
2026-04-30 12:15 31.80214 130.71741 849 ft 4 kts 232°
2026-04-30 12:16 31.80232 130.71765 850 ft 4 kts 217°
2026-04-30 12:16 31.80252 130.71775 850 ft 2 kts 153°
2026-04-30 12:16 31.80253 130.71774 850 ft 1 kts 150°
2026-04-30 12:19 31.80233 130.71788 850 ft 7 kts 150°
2026-04-30 12:19 31.80172 130.71829 848 ft 13 kts 150°
2026-04-30 12:19 31.80088 130.71886 847 ft 14 kts 150°
2026-04-30 12:20 31.80002 130.71945 846 ft 15 kts 150°
2026-04-30 12:20 31.79904 130.72011 843 ft 17 kts 150°
2026-04-30 12:20 31.79801 130.72079 841 ft 17 kts 150°
2026-04-30 12:20 31.79703 130.72146 840 ft 16 kts 150°
2026-04-30 12:21 31.79610 130.72208 838 ft 14 kts 150°
2026-04-30 12:21 31.79531 130.72262 839 ft 12 kts 150°
2026-04-30 12:21 31.79456 130.72314 839 ft 15 kts 150°
2026-04-30 12:21 31.79349 130.72386 837 ft 19 kts 150°
2026-04-30 12:22 31.79242 130.72458 838 ft 16 kts 150°
2026-04-30 12:22 31.79152 130.72518 839 ft 13 kts 150°
2026-04-30 12:22 31.79118 130.72596 837 ft 11 kts 76°
2026-04-30 12:22 31.79151 130.72657 835 ft 9 kts 58°
2026-04-30 12:23 31.79174 130.72702 833 ft 4 kts 57°
2026-04-30 12:23 31.79187 130.72708 833 ft 2 kts 13°
2026-04-30 12:23 31.79207 130.72703 833 ft 3 kts 340°
2026-04-30 12:23 31.79231 130.72688 834 ft 5 kts 330°
2026-04-30 12:24 31.79403 130.72572 837 ft 61 kts 330°
2026-04-30 12:24 31.79964 130.72193 844 ft 121 kts 330°
2026-04-30 12:24 31.80837 130.71605 859 ft 167 kts 330°
2026-04-30 12:24 31.81874 130.70927 1328 ft 173 kts 331°
2026-04-30 12:25 31.82927 130.70258 2061 ft 171 kts 330°
2026-04-30 12:25 31.83951 130.69574 2785 ft 169 kts 334°
2026-04-30 12:25 31.85152 130.69288 3150 ft 189 kts
2026-04-30 12:25 31.86404 130.69924 3496 ft 210 kts 43°
2026-04-30 12:26 31.87195 130.71457 3863 ft 233 kts 79°
2026-04-30 12:26 31.87163 130.73433 4358 ft 253 kts 108°
2026-04-30 12:26 31.86472 130.75416 4893 ft 272 kts 117°
2026-04-30 12:26 31.85649 130.77428 5712 ft 280 kts 121°
2026-04-30 12:27 31.84743 130.79486 6590 ft 287 kts 122°
2026-04-30 12:27 31.83818 130.81595 7431 ft 293 kts 121°
2026-04-30 12:27 31.82894 130.83757 8330 ft 298 kts 121°
2026-04-30 12:27 31.81959 130.85976 9199 ft 305 kts 121°
2026-04-30 12:28 31.81016 130.88239 10030 ft 312 kts 121°
2026-04-30 12:28 31.80040 130.90585 10490 ft 330 kts 121°
2026-04-30 12:28 31.78987 130.93102 10749 ft 355 kts 121°
2026-04-30 12:28 31.77889 130.95731 11236 ft 368 kts 121°
2026-04-30 12:29 31.76761 130.98448 12033 ft 372 kts 122°
2026-04-30 12:29 31.75613 131.01216 12767 ft 378 kts 122°
2026-04-30 12:29 31.74450 131.04010 13531 ft 382 kts 123°
2026-04-30 12:29 31.73273 131.06836 14204 ft 387 kts 123°
2026-04-30 12:30 31.72079 131.09692 14849 ft 392 kts 123°
2026-04-30 12:30 31.70871 131.12579 15495 ft 396 kts 124°
2026-04-30 12:30 31.69641 131.15509 16155 ft 401 kts 124°
2026-04-30 12:30 31.68417 131.18427 16787 ft 405 kts 124°
2026-04-30 12:31 31.67160 131.21420 17401 ft 410 kts 124°
2026-04-30 12:31 31.65891 131.24439 18002 ft 414 kts 124°
2026-04-30 12:31 31.64611 131.27482 18554 ft 417 kts 125°
2026-04-30 12:31 31.63319 131.30549 19117 ft 420 kts 125°
2026-04-30 12:32 31.62188 131.33749 19689 ft 433 kts 112°
2026-04-30 12:32 31.61741 131.37316 20164 ft 451 kts 96°
2026-04-30 12:32 31.62087 131.41018 20677 ft 464 kts 79°
2026-04-30 12:32 31.63218 131.44598 21201 ft 473 kts 64°
2026-04-30 12:33 31.65003 131.47810 21651 ft 478 kts 52°
2026-04-30 12:33 31.67051 131.50901 22160 ft 481 kts 52°
2026-04-30 12:33 31.69043 131.54071 22664 ft 484 kts 55°
2026-04-30 12:33 31.70930 131.57362 23170 ft 487 kts 58°
2026-04-30 12:34 31.72740 131.60739 23604 ft 490 kts 59°
2026-04-30 12:34 31.74517 131.64179 24005 ft 494 kts 60°
2026-04-30 12:34 31.76290 131.67666 24397 ft 497 kts 60°
2026-04-30 12:34 31.78064 131.71172 24786 ft 501 kts 60°
2026-04-30 12:35 31.79850 131.74701 25166 ft 504 kts 59°
2026-04-30 12:35 31.81648 131.78252 25549 ft 507 kts 59°
2026-04-30 12:35 31.83460 131.81829 25915 ft 511 kts 59°
2026-04-30 12:35 31.85283 131.85430 26291 ft 514 kts 59°
2026-04-30 12:36 31.87095 131.89012 26640 ft 517 kts 59°
2026-04-30 12:36 31.88938 131.92659 26987 ft 520 kts 59°
2026-04-30 12:36 31.90797 131.96338 27337 ft 523 kts 59°
2026-04-30 12:36 31.92663 132.00035 27680 ft 526 kts 59°
2026-04-30 12:37 31.94540 132.03760 28011 ft 529 kts 59°
2026-04-30 12:37 31.96428 132.07509 28346 ft 532 kts 59°
2026-04-30 12:37 31.98296 132.11221 28670 ft 535 kts 59°
2026-04-30 12:37 32.00197 132.15003 29009 ft 538 kts 59°
2026-04-30 12:38 32.02104 132.18801 29313 ft 541 kts 59°
2026-04-30 12:38 32.04024 132.22627 29633 ft 543 kts 59°
2026-04-30 12:38 32.05949 132.26468 29946 ft 546 kts 59°
2026-04-30 12:38 32.07883 132.30330 30229 ft 548 kts 59°
2026-04-30 12:39 32.09828 132.34217 30514 ft 550 kts 59°
2026-04-30 12:39 32.11775 132.38113 30786 ft 552 kts 59°
2026-04-30 12:39 32.13739 132.42014 31098 ft 554 kts 58°
2026-04-30 12:39 32.15769 132.45881 31445 ft 554 kts 58°
2026-04-30 12:40 32.17825 132.49737 31788 ft 554 kts 58°
2026-04-30 12:40 32.19871 132.53579 32142 ft 554 kts 58°
2026-04-30 12:40 32.21917 132.57441 32477 ft 554 kts 58°
2026-04-30 12:40 32.23932 132.61259 32806 ft 554 kts 58°
2026-04-30 12:41 32.25970 132.65135 33123 ft 554 kts 59°
2026-04-30 12:41 32.28007 132.69015 33433 ft 554 kts 59°
2026-04-30 12:41 32.30041 132.72894 33738 ft 554 kts 59°
2026-04-30 12:41 32.32071 132.76770 34021 ft 554 kts 59°
2026-04-30 12:42 32.34096 132.80641 34305 ft 553 kts 59°
2026-04-30 12:42 32.36123 132.84519 34596 ft 552 kts 59°
2026-04-30 12:42 32.38118 132.88339 34802 ft 552 kts 59°
2026-04-30 12:42 32.40134 132.92204 34851 ft 551 kts 59°
2026-04-30 12:43 32.44150 132.99918 34853 ft 550 kts 59°
2026-04-30 12:43 32.48165 133.07644 34851 ft 550 kts 59°
2026-04-30 12:44 32.52166 133.15359 34853 ft 549 kts 59°
2026-04-30 12:44 32.56163 133.23083 34852 ft 549 kts 59°
2026-04-30 12:45 32.60124 133.30752 34852 ft 548 kts 59°
2026-04-30 12:45 32.64097 133.38462 34853 ft 547 kts 59°
2026-04-30 12:46 32.68037 133.46200 34847 ft 547 kts 60°
2026-04-30 12:46 32.71902 133.53979 34850 ft 546 kts 60°
2026-04-30 12:47 32.75750 133.61723 34849 ft 546 kts 60°